Location: Newark
(52.0178°N, 4.7453°W)
Time: 17:10:44
(UTC+00:00)

ISS - Visible Passes

Search period start: 22 October 2019 00:00
Search period end: 01 November 2019 00:00
Orbit: 411 x 421 km, 51.6° (Epoch: 22 October)

Date Brightness Start Highest point End Pass type
(mag) Time Alt. Az. Time Alt. Az. Time Alt. Az.
25 Oct -0.7 05:36:37 10° SSE 05:37:59 12° SE 05:39:21 10° ESE visible
26 Oct -2.0 06:22:32 10° SW 06:25:35 32° SSE 06:28:38 10° E visible
27 Oct -1.6 05:34:21 10° SSW 05:37:06 23° SSE 05:39:51 10° E visible
28 Oct -1.3 04:47:33 14° SSE 04:48:40 17° SE 04:50:53 10° E visible
28 Oct -3.1 06:21:35 10° WSW 06:24:53 54° SSE 06:28:12 10° E visible
29 Oct -0.5 04:01:15 10° ESE 04:01:15 10° ESE 04:01:20 10° ESE visible
29 Oct -2.7 05:34:10 18° SW 05:36:19 41° SSE 05:39:31 10° E visible
30 Oct -2.3 04:47:45 30° SSE 04:47:46 30° SSE 04:50:47 10° E visible
30 Oct -3.6 06:20:53 10° WSW 06:24:15 77° S 06:27:37 10° E visible
31 Oct -0.6 04:01:14 14° ESE 04:01:14 14° ESE 04:01:57 10° E visible
31 Oct -3.5 05:34:08 30° WSW 05:35:37 65° SSE 05:38:57 10° E visible
